FW5647 Weather Reports


time (UTC)temp
C
wind
direction
speed
KPH
gust
KPH
rain 1hr
cm
rain 24hr
cm
rain mn
cm
humidity
%
barometer
mb
20240614124527 21 60 0.0 6.4 0.00 0.10 0.00 70 1014.7
20240614123021 20 33 1.6 4.8 0.00 0.10 0.00 77 1014.4
20240614121530 18 0 0.0 4.8 0.00 0.10 0.00 92 1014.3
20240614120021 17 0 0.0 0.0 0.00 0.10 0.00 95 1014.2
20240614114520 17 0 0.0 0.0 0.00 0.10 0.00 95 1013.9
20240614113021 16 0 0.0 0.0 0.00 0.10 0.00 95 1013.9
20240614111540 16 0 0.0 0.0 0.00 0.10 0.00 95 1013.7
20240614110033 16 0 0.0 0.0 0.00 0.10 0.00 95 1013.5
20240614104524 16 0 0.0 0.0 0.00 0.10 0.00 94 1013.5
20240614103026 16 0 0.0 0.0 0.00 0.10 0.00 94 1013.6
20240614101532 16 0 0.0 0.0 0.00 0.10 0.00 94 1013.3
20240614100025 16 0 0.0 0.0 0.00 0.10 0.00 94 1013.0
20240614094520 16 0 0.0 0.0 0.00 0.10 0.00 94 1012.8
20240614093019 17 0 0.0 0.0 0.00 0.10 0.00 94 1012.7
20240614091528 17 0 0.0 0.0 0.00 0.10 0.00 93 1012.5
20240614090022 17 0 0.0 0.0 0.00 0.10 0.00 94 1012.3
20240614084535 17 0 0.0 0.0 0.00 0.10 0.00 94 1012.0
20240614083019 17 0 0.0 0.0 0.00 0.10 0.00 94 1012.0
20240614081520 17 0 0.0 1.6 0.00 0.10 0.00 93 1012.1
20240614080016 17 0 0.0 1.6 0.00 0.10 0.00 93 1011.9
20240614074525 17 0 0.0 1.6 0.00 0.10 0.00 92 1011.9
20240614073019 17 0 0.0 0.0 0.00 0.10 0.00 92 1011.5
20240614071520 18 0 0.0 1.6 0.00 0.10 0.00 91 1011.7
20240614070022 18 310 0.0 4.8 0.00 0.10 0.00 91 1011.5
20240614064522 18 244 0.0 8.0 0.00 0.10 0.00 91 1011.6
20240614063019 18 262 0.0 3.2 0.00 0.10 0.00 91 1011.6
20240614061535 18 259 0.0 6.4 0.00 0.10 0.00 90 1011.7
20240614060037 18 251 3.2 8.0 0.00 0.10 0.00 90 1011.8
20240614054521 18 231 1.6 4.8 0.00 0.10 0.00 90 1011.9
20240614053020 18 259 1.6 12.9 0.00 0.10 0.00 91 1011.9
20240614051525 18 0 0.0 1.6 0.00 0.10 0.00 90 1012.0
20240614050024 18 270 0.0 4.8 0.00 0.10 0.00 90 1011.9
20240614044520 18 252 0.0 1.6 0.00 0.10 0.00 89 1011.7
20240614043021 18 0 0.0 3.2 0.00 0.10 0.00 89 1011.6
20240614041524 18 233 0.0 3.2 0.00 0.10 0.00 90 1011.7
20240614040022 18 0 0.0 3.2 0.00 0.10 0.00 88 1011.8
20240614034520 18 0 0.0 0.0 0.00 0.10 0.10 87 1011.5
20240614033024 19 0 0.0 0.0 0.00 0.10 0.10 85 1011.2
20240614031516 20 246 0.0 3.2 0.00 0.10 0.10 83 1011.2
20240614030021 20 291 1.6 8.0 0.00 0.10 0.10 82 1010.8
20240614024519 21 0 1.6 6.4 0.00 0.10 0.10 80 1010.6
20240614023018 21 255 1.6 4.8 0.00 0.10 0.10 79 1010.6
20240614021518 21 238 3.2 6.4 0.00 0.10 0.10 77 1010.6
20240614020020 22 251 3.2 8.0 0.00 0.10 0.10 76 1010.6
20240614014518 22 252 3.2 9.7 0.00 0.10 0.10 75 1010.7
20240614013032 22 236 4.8 12.9 0.00 0.10 0.10 74 1011.0
20240614011532 22 262 4.8 16.1 0.00 0.10 0.10 74 1011.1
20240614010017 23 353 4.8 24.1 0.00 0.10 0.10 73 1011.3
20240614004518 23 251 8.0 19.3 0.00 0.10 0.10 73 1011.2
20240614003025 23 255 6.4 17.7 0.00 0.10 0.10 73 1011.3
20240614001527 23 203 4.8 24.1 0.00 0.10 0.10 73 1011.1
20240614000021 23 250 6.4 17.7 0.00 0.10 0.10 74 1011.2
20240613234613 23 262 8.0 22.5 0.00 0.10 0.10 74 1011.3
20240613233018 23 273 8.0 22.5 0.00 0.10 0.10 72 1011.0
20240613231521 24 284 9.7 27.4 0.00 0.10 0.10 71 1011.0
20240613230031 24 266 8.0 16.1 0.00 0.10 0.10 71 1010.6
20240613224547 24 46 4.8 12.9 0.00 0.10 0.10 71 1010.6
20240613223018 25 299 6.4 20.9 0.00 0.10 0.10 67 1010.7
20240613221521 26 248 8.0 33.8 0.00 0.10 0.10 61 1010.8
20240613220043 27 236 4.8 14.5 0.00 0.10 0.10 52 1010.7
20240613214520 28 268 6.4 17.7 0.00 0.10 0.10 52 1010.7
20240613213024 28 271 8.0 24.1 0.00 0.10 0.10 50 1010.3
20240613211518 29 259 4.8 25.7 0.00 0.10 0.10 49 1009.7
20240613210017 30 219 8.0 30.6 0.00 0.10 0.10 47 1009.7
20240613204515 30 217 12.9 29.0 0.00 0.10 0.10 45 1009.6
20240613203019 30 221 9.7 27.4 0.00 0.10 0.10 46 1009.9
20240613201533 30 283 11.3 30.6 0.00 0.10 0.10 46 1010.0
20240613200019 31 221 8.0 20.9 0.00 0.10 0.10 47 1010.1
20240613194608 30 257 14.5 30.6 0.00 0.10 0.10 47 1010.1
20240613193037 30 288 16.1 32.2 0.00 0.10 0.10 45 1010.3
20240613191519 30 245 12.9 37.0 0.00 0.10 0.10 47 1010.5
20240613190021 30 231 16.1 35.4 0.00 0.10 0.10 44 1010.6
20240613184532 30 251 14.5 29.0 0.00 0.10 0.10 46 1010.9
20240613183029 30 276 16.1 40.2 0.00 0.10 0.10 46 1010.8
20240613181526 30 272 6.4 20.9 0.00 0.10 0.10 53 1011.0
20240613180019 29 244 9.7 32.2 0.00 0.10 0.10 54 1011.1
20240613174522 29 305 14.5 25.7 0.00 0.10 0.10 52 1011.2
20240613173022 28 279 11.3 29.0 0.00 0.10 0.10 55 1011.2
20240613171539 29 156 11.3 25.7 0.00 0.10 0.10 53 1011.2
20240613170027 28 117 9.7 29.0 0.00 0.10 0.10 57 1011.2
20240613164526 28 199 8.0 19.3 0.00 0.10 0.10 59 1011.0
20240613163025 27 311 6.4 20.9 0.00 0.10 0.10 66 1011.0
20240613161523 27 233 8.0 19.3 0.00 0.10 0.10 64 1010.9
20240613160021 27 217 4.8 16.1 0.00 0.10 0.10 67 1011.0
20240613154532 27 253 6.4 14.5 0.00 0.10 0.10 68 1011.2
20240613153023 26 292 4.8 14.5 0.00 0.10 0.10 71 1011.0
20240613151522 26 112 4.8 11.3 0.00 0.10 0.10 69 1011.2
20240613150021 25 224 4.8 11.3 0.00 0.10 0.10 73 1011.5
20240613144531 25 178 3.2 16.1 0.00 0.10 0.10 74 1011.8
20240613143020 24 266 4.8 19.3 0.00 0.10 0.10 76 1012.3
20240613141531 25 105 3.2 6.4 0.00 0.10 0.10 78 1012.4
20240613140019 22 129 3.2 6.4 0.00 0.10 0.10 82 1012.5
20240613134533 20 90 1.6 4.8 0.00 0.10 0.10 91 1012.5
20240613133016 19 104 1.6 4.8 0.03 0.10 0.10 92 1012.8
20240613131522 18 100 1.6 3.2 0.10 0.10 0.10 91 1013.1
20240613130027 18 18 3.2 8.0 0.10 0.10 0.10 89 1013.2